Погода в Кононовке

Украина / Луганская область     49°20′02″N   39°37′36″E
темп.,
°C
ветер,
м/с
пор.,
м/с
влажн.,
%
обл.,
%
осадки,
мм/ч
давл.,
гПа
погр.,
м
31 июля, сб
сб3100:00+20ю228796 0.8 100852
03:00+19юз2487100 0.8 100971
06:00+20юз11836 0.2 100940
09:00+26ююз22585 0.2 1009533
12:00+30ююз234511 0.0 10091838
15:00+29з1150100 0.3 100967
18:00+30ссз324442 0.0 1009994
21:00+26ссв235776 0.0 101051
1 августа, вс
вс100:00+24св33618 0.0 101135
03:00+22св22665 0.0 101211
06:00+23св24695 0.0 101282
09:00+29всв45485 0.0 1012637
12:00+33в44325 0.0 10121961
15:00+34ююв43206 0.0 10112406
18:00+34з122295 0.0 1010591
21:00+24ссв38625 0.0 1011145
2 августа, пн
пн200:00+23св496413 0.0 1011140
03:00+22всв22576 0.0 101120
06:00+23юв11445 0.0 101111
09:00+30ююз12275 0.0 1011417
12:00+35ююз23215 0.0 10101687
15:00+37зюз44198 0.0 10093576
18:00+36зсз232245 0.0 10081429
21:00+28св11339 0.0 100812
3 августа, вт
вт300:00+26зсз1139100 0.0 100911
03:00+24ссз125163 0.0 100812
06:00+25ссз235094 0.0 100962
09:00+29ссз3343100 0.1 1009445
12:00+31с2340100 0.1 10101182
15:00+30сз4444100 0.1 1010901
18:00+29зсз5645100 0.0 10091021
21:00+24сз376196 0.2 1011147
4 августа, ср
ср400:00+21с33745 1.0 101237
03:00+19ссв3972100 1.0 1013192
06:00+18ссз347054 0.0 1014107
09:00+25ссв45430 0.0 1015815
12:00+29с44315 0.0 10152357
15:00+30ссз432683 0.0 10143235
18:00+28ссз663231 0.0 10151328
21:00+22ссв3346100 0.0 101626